Weather History for KUUU - October, 2011

Change the Weather History Date:

Friday, October 28, 2011

  Actual Average Record
Temperature  
Mean Temperature 40 °F -  
Max Temperature 48 °F 59 °F 72 °F (1989)
Min Temperature 35 °F 42 °F 28 °F (1979)
Degree Days  
Heating Degree Days 24    
Moisture  
Dew Point 29 °F    
Average Humidity 67    
Maximum Humidity 93    
Minimum Humidity 39    
Precipitation  
Precipitation 0.00 in - - ()
Sea Level Pressure  
Sea Level Pressure 30.11 in    
Wind  
Wind Speed 14 mph (NNW)    
Max Wind Speed 22 mph    
Max Gust Speed 29 mph    
Visibility 10 miles    
Events      
Averages and records for this station are not official NWS values.
T = Trace of Precipitation, MM = Missing Value Source: NWS Daily Summary

Daily Weather History Graph

Daily Weather History Graph

Search for Another Location

Airport or City:

Trip Planner

Search our weather history database for the weather conditions in past years. The results will help you decide how hot, cold, wet, or windy it might be!

Date:

Astronomy

Oct. 28, 2011 Rise Set
Actual Time 7:11 AM EDT 5:45 PM EDT
Civil Twilight 6:43 AM EDT 6:13 PM EDT
Nautical Twilight 6:10 AM EDT 6:46 PM EDT
Astronomical Twilight 5:38 AM EDT 7:18 PM EDT
Moon 9:26 AM EDT (10/28) 7:03 PM EDT (10/28)
Length of Visible Light 11h 30m
Length of Day
10h 33m
Waxing Crescent, 5% of the Moon is Illuminated
Oct 28
Waxing Crescent
Nov 2
First Quarter
Nov 10
Full
Nov 18
Last Quarter
Nov 25
New

Hourly Weather History & Observations

Time (EDT) Temp. Windchill Dew Point Humidity Pressure Visibility Wind Dir Wind Speed Gust Speed Precip Events Conditions
12:53 AM 37.0 °F 27.4 °F 35.1 °F 93% 29.89 in 10.0 mi North 17.3 mph 28.8 mph N/A   Overcast
1:53 AM 37.0 °F 27.4 °F 33.1 °F 86% 29.92 in 10.0 mi NNW 17.3 mph 27.6 mph N/A   Overcast
2:03 AM 37.4 °F 28.9 °F 33.8 °F 87% 29.93 in 10.0 mi NNW 13.8 mph 25.3 mph N/A   Overcast
2:49 AM 35.6 °F 24.2 °F 32.0 °F 87% 29.94 in 10.0 mi NNW 21.9 mph 28.8 mph N/A   Scattered Clouds
2:53 AM 37.0 °F 27.4 °F 32.0 °F 82% 29.95 in 10.0 mi NNW 17.3 mph 28.8 mph N/A   Partly Cloudy
3:53 AM 36.0 °F 27.1 °F 32.0 °F 86% 29.98 in 10.0 mi NNW 13.8 mph 21.9 mph N/A   Clear
4:53 AM 36.0 °F 27.5 °F 30.9 °F 82% 30.01 in 10.0 mi NNW 12.7 mph 21.9 mph N/A   Clear
6:53 AM 36.0 °F 26.3 °F 30.0 °F 79% 30.07 in 10.0 mi NNW 16.1 mph 21.9 mph N/A   Clear
7:53 AM 36.0 °F 26.7 °F 28.9 °F 76% 30.11 in 10.0 mi NNW 15.0 mph 20.7 mph N/A   Clear
8:53 AM 37.9 °F 30.5 °F 28.0 °F 68% 30.14 in 10.0 mi NNW 11.5 mph 24.2 mph N/A   Clear
9:53 AM 39.9 °F 32.5 °F 27.0 °F 60% 30.15 in 10.0 mi NNW 12.7 mph 24.2 mph N/A   Clear
10:53 AM 42.1 °F 34.2 °F 26.1 °F 53% 30.16 in 10.0 mi NNW 16.1 mph 23.0 mph N/A   Clear
11:53 AM 43.0 °F 36.4 °F 26.1 °F 51% 30.17 in 10.0 mi NNW 12.7 mph 20.7 mph N/A   Clear
12:53 PM 46.0 °F 40.6 °F 28.0 °F 50% 30.17 in 10.0 mi NW 11.5 mph 20.7 mph N/A   Clear
1:53 PM 46.0 °F 43.1 °F 26.1 °F 46% 30.17 in 10.0 mi North 5.8 mph - N/A   Clear
3:53 PM 46.9 °F - 23.0 °F 39% 30.18 in 10.0 mi NNW 10.4 mph - N/A   Clear
4:53 PM 46.0 °F 43.1 °F 25.0 °F 44% 30.19 in 10.0 mi NW 5.8 mph - N/A   Clear
5:53 PM 43.0 °F 41.3 °F 27.0 °F 53% 30.19 in 10.0 mi NNW 3.5 mph - N/A   Partly Cloudy
6:53 PM 43.0 °F 41.3 °F 27.0 °F 53% 30.23 in 10.0 mi North 3.5 mph - N/A   Clear
7:53 PM 42.1 °F 39.2 °F 28.9 °F 60% 30.24 in 10.0 mi North 4.6 mph - N/A   Clear
9:53 PM 41.0 °F 37.1 °F 30.0 °F 65% 30.27 in 10.0 mi NNW 5.8 mph - N/A   Clear
10:53 PM 41.0 °F 38.0 °F 30.9 °F 67% 30.26 in 10.0 mi North 4.6 mph - N/A   Clear
11:53 PM 41.0 °F 38.0 °F 30.9 °F 67% 30.26 in 10.0 mi NNW 4.6 mph - N/A   Clear